[[{"header":{"parameterUnit":"m.s-1","parameterCategory":1,"la1":30.2991,"la2":30.254,"lo1":-89.0895,"lo2":-89.0444,"dy":0.0017,"dx":0.0017,"nx":28,"ny":28,"refTime":"2024-10-01T21:00:00:Z","depth":0,"parameterNumber":2,"parameterNumberName":"U-component_of_WINDS"},"data":[0,0,0,0,0,0,0,0,0,0,0,0,0,0,0,0,0,0,0,0,0,0,0,0,0,0,0,0,0,0,0,0,0,0,0,0,0,0,0,0,0,0,0,0,0,0,0,0,0,0,0,0,0,0,0,0,0,0,0.6007,0.6008,0,0.6127,0.6128,0.613,0.6164,0.6164,0.6163,0.6163,0.6287,0.6291,0.6295,0,0,0,0,0,0,0,0,0,0,0,0,0,0.5806,0.581,0.6006,0.6008,0.6009,0.6127,0.6128,0.613,0.6165,0.6164,0.6163,0.6162,0.6286,0.6291,0.6295,0,0,0,0,0,0,0,0,0,0,0,0,0,0.5906,0.5811,0.6006,0.6041,0.6045,0.6126,0.6128,0.613,0.6165,0.6164,0.6163,0.6162,0.6284,0.629,0.6296,0.6352,0,0,0.6314,0.6316,0,0,0,0,0,0,0,0,0.5901,0.5914,0.6034,0.6039,0.6044,0.613,0.6103,0.6205,0.6165,0.6119,0.6162,0.6161,0.6236,0.6245,0.627,0.6358,0.6363,0.6314,0.6318,0.6321,0.6322,0,0,0,0,0,0,0,0.5894,0.5909,0.6054,0.6036,0.6042,0.605,0.6063,0.6123,0.6182,0.6123,0.6126,0.614,0.6238,0.6264,0.6273,0.6365,0.6314,0.632,0.6323,0.6325,0.65,0.6501,0,0,0,0,0,0,0.5881,0.5903,0.605,0.6058,0.5968,0.6054,0.6069,0.6103,0.6181,0.6192,0.614,0.6141,0.6255,0.6267,0.6278,0.6346,0.632,0.6326,0.6329,0.6499,0.6501,0.6502,0,0,0,0,0,0,0.5876,0.5894,0.6045,0.5981,0.6001,0.6059,0.6097,0.6106,0.6132,0.6194,0.6205,0.6157,0.6255,0.627,0.6332,0.6351,0.6329,0.6334,0.6498,0.65,0.6501,0.6485,0,0,0,0,0,0,0.587,0.5892,0.5914,0.5981,0.6004,0.6098,0.6098,0.6109,0.6142,0.6144,0.6212,0.6222,0.6255,0.6323,0.6338,0.6359,0.6339,0.6497,0.6499,0.6501,0.6484,0.6486,0.6487,0,0,0,0,0,0.5863,0.5906,0.5915,0.5933,0.6033,0.6099,0.6112,0.6148,0.6144,0.6166,0.6205,0.622,0.6347,0.6329,0.6346,0.6369,0.6496,0.6498,0.6501,0.6483,0.6485,0.6487,0,0,0,0,0,0,0.584,0.5915,0.5926,0.5992,0.6039,0.6105,0.6134,0.615,0.62,0.6199,0.6243,0.6258,0.6317,0.6349,0.6329,0.6426,0.6421,0.6427,0.6402,0.6405,0.6406,0.6397,0.6344,0,0,0,0,0,0.5843,0.589,0.5953,0.6004,0.6027,0.6076,0.6107,0.613,0.6181,0.6201,0.6245,0.6293,0.6343,0.6376,0.6426,0.6488,0.6503,0.6512,0.6514,0.6515,0.652,0.6552,0.6557,0.651,0.651,0.651,0,0,0.5849,0.5895,0.5923,0.6001,0.604,0.6087,0.6093,0.6144,0.6179,0.6209,0.627,0.6303,0.636,0.6422,0.6452,0.6451,0.6535,0.6518,0.6518,0.6523,0.6555,0.656,0.6564,0.6512,0.6512,0.6511,0,0,0.5883,0.5924,0.597,0.6008,0.6067,0.6099,0.6109,0.6173,0.6196,0.6258,0.628,0.6322,0.6409,0.6448,0.6479,0.6524,0.6539,0.6539,0.6548,0.6579,0.6583,0.6586,0.6601,0.6606,0.6544,0.6544,0.6544,0,0.5883,0.5955,0.5992,0.604,0.6073,0.6101,0.6147,0.6183,0.6255,0.6277,0.6275,0.6382,0.6422,0.6492,0.6503,0.6528,0.654,0.6532,0.658,0.6583,0.6587,0.6601,0.6607,0.6543,0.6543,0.6543,0.6543,0,0.5952,0.6001,0.6031,0.6098,0.6135,0.6182,0.6225,0.6257,0.6276,0.6308,0.6369,0.6418,0.6477,0.6496,0.6516,0.6568,0.6565,0.6571,0.6568,0.659,0.6605,0.661,0.6542,0.6543,0.6543,0.6543,0,0,0.5977,0.6061,0.6072,0.6101,0.6166,0.6205,0.6253,0.6309,0.6335,0.6383,0.6423,0.6494,0.6499,0.6534,0.6558,0.6586,0.6616,0.6588,0.659,0.659,0.6674,0.6669,0.6675,0.6626,0.6627,0.6628,0.6669,0,0.6019,0.6104,0.6137,0.6207,0.6252,0.6277,0.6318,0.6362,0.6392,0.6435,0.6468,0.6517,0.652,0.6541,0.657,0.6606,0.6633,0.6604,0.6663,0.6665,0.6648,0.6682,0.6678,0.6714,0.6674,0.6675,0.6676,0,0.608,0.6126,0.62,0.6257,0.6277,0.6313,0.6366,0.6407,0.6456,0.6476,0.6513,0.6535,0.6585,0.6577,0.6645,0.6624,0.665,0.6672,0.6674,0.6681,0.6672,0.6689,0.6726,0.6731,0.6686,0.6685,0.6684,0,0.6088,0.617,0.6224,0.6249,0.6317,0.6342,0.6371,0.6419,0.645,0.6497,0.6517,0.6569,0.6597,0.6636,0.6671,0.6662,0.6734,0.6731,0.6751,0.675,0.6766,0.6765,0.6807,0.6783,0.6783,0.6783,0.6783,0,0.6131,0.6175,0.6229,0.6262,0.6311,0.6348,0.6395,0.6426,0.6468,0.6507,0.6533,0.6569,0.6613,0.6654,0.6682,0.6732,0.6745,0.6762,0.6769,0.676,0.6757,0.6777,0.6775,0.6785,0.6784,0.6784,0.6784,0,0.615,0.6188,0.6248,0.6307,0.6322,0.6356,0.6406,0.6438,0.6469,0.6517,0.6531,0.6579,0.6628,0.6666,0.6732,0.675,0.6803,0.6811,0.6786,0.6789,0.6808,0.6805,0.6864,0.6873,0.6844,0.6844,0.6844,0,0.6175,0.6209,0.627,0.6298,0.6327,0.6371,0.6402,0.6439,0.647,0.6527,0.6552,0.6603,0.6646,0.6724,0.6764,0.6813,0.6822,0.6839,0.6829,0.6818,0.682,0.6818,0.682,0.684,0.684,0.684,0.684,0,0.6214,0.623,0.6274,0.6324,0.636,0.6401,0.6442,0.6463,0.6507,0.6541,0.6591,0.6624,0.6689,0.6739,0.6791,0.6821,0.6837,0.6842,0.685,0.6841,0.6824,0.6832,0.6788,0.6841,0.6841,0.6841,0.6841,0.6841,0.6236,0.6266,0.6313,0.6361,0.6395,0.6433,0.6465,0.6499,0.6541,0.6597,0.6616,0.6667,0.6713,0.6785,0.6815,0.6855,0.6856,0.6867,0.6869,0.6871,0.6869,0.6818,0.6865,0.6865,0.6865,0.6865,0.6865,0,0.6275,0.6306,0.6349,0.6405,0.6442,0.6453,0.6499,0.6529,0.6574,0.6615,0.6656,0.6712,0.676,0.6803,0.6852,0.6875,0.6884,0.6887,0.6886,0.6892,0.6867,0.6855,0.6879,0.6879,0.6879,0.6879,0.6879,0.6879,0.63,0.6351,0.6372,0.644,0.6471,0.6521,0.6546,0.658,0.6613,0.6675,0.6714,0.6741,0.6783,0.6835,0.6878,0.689,0.6906,0.6907,0.692,0.6896,0.6894,0.6892,0.6881,0.6911,0.6911,0.6942,0.6942,0.6943]},{"header":{"parameterUnit":"m.s-1","parameterCategory":1,"la1":30.2991,"la2":30.254,"lo1":-89.0895,"lo2":-89.0444,"dy":0.0017,"dx":0.0017,"nx":28,"ny":28,"refTime":"2024-10-01T21:00:00:Z","depth":0,"parameterNumber":3,"parameterNumberName":"V-component_of_WINDS"},"data":[0,0,0,0,0,0,0,0,0,0,0,0,0,0,0,0,0,0,0,0,0,0,0,0,0,0,0,0,0,0,0,0,0,0,0,0,0,0,0,0,0,0,0,0,0,0,0,0,0,0,0,0,0,0,0,0,0,0,2.0097,2.0097,0,2.011,2.011,2.0111,2.0095,2.0095,2.0094,2.0094,2.0105,2.0105,2.0106,0,0,0,0,0,0,0,0,0,0,0,0,0,2.0052,2.0053,2.0097,2.0097,2.0097,2.011,2.011,2.0111,2.0095,2.0095,2.0094,2.0093,2.0104,2.0105,2.0106,0,0,0,0,0,0,0,0,0,0,0,0,0,2.0069,2.0054,2.0097,2.0091,2.0091,2.011,2.011,2.0111,2.0095,2.0095,2.0094,2.0093,2.0104,2.0105,2.0106,2.0131,0,0,2.011,2.0111,0,0,0,0,0,0,0,0,2.0068,2.0071,2.0092,2.0092,2.0091,2.01,2.0099,2.0117,2.0096,2.0094,2.0094,2.0093,2.0104,2.0105,2.0109,2.0132,2.0132,2.011,2.0111,2.0112,2.0112,0,0,0,0,0,0,0,2.0067,2.007,2.0102,2.0092,2.0092,2.0086,2.0088,2.0102,2.0103,2.0094,2.0093,2.0095,2.0103,2.0108,2.0109,2.0132,2.011,2.0111,2.0112,2.0113,2.0169,2.017,0,0,0,0,0,0,2.0067,2.0069,2.0102,2.0103,2.0078,2.0088,2.0089,2.0098,2.0103,2.0103,2.0095,2.0094,2.0106,2.0108,2.011,2.0135,2.0112,2.0113,2.0113,2.0168,2.0169,2.017,0,0,0,0,0,0,2.0066,2.007,2.0101,2.0086,2.0089,2.0089,2.0099,2.0099,2.0104,2.0104,2.0104,2.01,2.0106,2.0108,2.0125,2.0135,2.0113,2.0114,2.0168,2.0169,2.017,2.0188,0,0,0,0,0,0,2.0065,2.007,2.0081,2.0086,2.009,2.0118,2.01,2.01,2.0106,2.0104,2.0109,2.0109,2.0105,2.0123,2.0126,2.0137,2.0115,2.0167,2.0168,2.0169,2.0187,2.019,2.0193,0,0,0,0,0,2.0064,2.0087,2.0082,2.0086,2.0104,2.0119,2.0121,2.0117,2.0107,2.0117,2.0116,2.0109,2.0134,2.0125,2.0128,2.0139,2.0166,2.0168,2.0169,2.0185,2.0189,2.0193,0,0,0,0,0,0,2.0084,2.0087,2.0082,2.0108,2.0113,2.0116,2.0129,2.0122,2.013,2.0128,2.0122,2.0123,2.014,2.0141,2.0131,2.016,2.0148,2.015,2.0159,2.0163,2.0166,2.0164,2.0116,0,0,0,0,0,2.0091,2.0104,2.0106,2.0128,2.0131,2.0129,2.0136,2.0132,2.0137,2.0139,2.014,2.0143,2.0151,2.0157,2.0166,2.0187,2.0185,2.0196,2.0198,2.0201,2.0203,2.0209,2.0213,2.0176,2.0176,2.0176,0,0,2.0107,2.011,2.0119,2.0132,2.0136,2.0146,2.0131,2.0145,2.0152,2.0141,2.0156,2.0156,2.0159,2.0177,2.0185,2.0179,2.0212,2.0203,2.0205,2.0206,2.0211,2.0215,2.0218,2.0177,2.0177,2.0177,0,0,2.014,2.0145,2.0162,2.0165,2.017,2.0168,2.0172,2.0175,2.0175,2.019,2.018,2.0187,2.0203,2.0205,2.0208,2.0236,2.0227,2.0238,2.0254,2.026,2.0263,2.0265,2.0272,2.0275,2.024,2.024,2.024,0,2.0158,2.0176,2.0171,2.0184,2.0188,2.0178,2.0192,2.0195,2.0203,2.0205,2.0198,2.0214,2.0216,2.0232,2.0238,2.0242,2.0243,2.0238,2.0263,2.0266,2.0268,2.0274,2.0277,2.0241,2.0241,2.0241,2.0241,0,2.0195,2.0207,2.022,2.0226,2.0232,2.0246,2.0241,2.0247,2.0242,2.0239,2.0252,2.0254,2.026,2.0263,2.0259,2.0277,2.0272,2.0265,2.0252,2.0272,2.0278,2.0281,2.0243,2.0243,2.0242,2.0242,0,0,2.0243,2.0244,2.0249,2.0249,2.0252,2.026,2.0272,2.0277,2.0281,2.0285,2.0292,2.0303,2.0295,2.0298,2.0293,2.0299,2.0316,2.0289,2.0289,2.0292,2.0332,2.0336,2.034,2.0311,2.0311,2.0312,2.033,0,2.0273,2.0294,2.0288,2.0308,2.0316,2.0304,2.0314,2.0315,2.0312,2.0317,2.0314,2.032,2.031,2.0311,2.0317,2.0313,2.0324,2.0312,2.0315,2.0315,2.0313,2.0343,2.0349,2.0367,2.0333,2.0333,2.0334,0,2.0312,2.0316,2.0337,2.0334,2.0337,2.0346,2.0348,2.0354,2.0354,2.0351,2.0352,2.0345,2.0353,2.034,2.0349,2.0341,2.0341,2.0339,2.034,2.0339,2.0325,2.0341,2.0373,2.0375,2.0338,2.0338,2.0337,0,2.034,2.0352,2.0364,2.0365,2.0363,2.0369,2.0368,2.0367,2.0369,2.0371,2.0371,2.0374,2.0375,2.0376,2.0367,2.036,2.0376,2.0364,2.0371,2.0371,2.0375,2.0375,2.0406,2.0378,2.0378,2.0378,2.0378,0,2.0373,2.0385,2.0376,2.0383,2.0395,2.0387,2.0398,2.0396,2.0394,2.0399,2.0389,2.0393,2.0383,2.0386,2.0379,2.0385,2.0387,2.0383,2.038,2.0383,2.0383,2.0382,2.038,2.0379,2.0379,2.0379,2.0379,0,2.0407,2.0402,2.0413,2.041,2.0409,2.0417,2.0413,2.0418,2.0414,2.0419,2.042,2.0413,2.0415,2.0407,2.0408,2.0403,2.0412,2.0408,2.0412,2.041,2.0417,2.0416,2.0448,2.0451,2.0423,2.0424,2.0424,0,2.0427,2.0436,2.0432,2.0435,2.0434,2.0439,2.044,2.0432,2.0433,2.0431,2.0436,2.0437,2.0437,2.044,2.0434,2.0433,2.0429,2.044,2.0429,2.0429,2.0426,2.0425,2.0424,2.0442,2.0442,2.0443,2.0443,0,2.0463,2.0459,2.0462,2.0463,2.0465,2.0466,2.0465,2.0468,2.0458,2.046,2.0462,2.0462,2.0461,2.0461,2.0459,2.0456,2.0447,2.0446,2.0447,2.0449,2.045,2.0447,2.0416,2.0445,2.0445,2.0445,2.0445,2.0445,2.0488,2.0494,2.0491,2.0494,2.0492,2.0491,2.0495,2.049,2.0492,2.0491,2.0485,2.0487,2.0482,2.0478,2.0476,2.0475,2.047,2.0473,2.0473,2.0473,2.0474,2.0451,2.0475,2.0475,2.0475,2.0475,2.0475,0,2.052,2.0517,2.052,2.0519,2.052,2.0512,2.051,2.0511,2.0513,2.051,2.051,2.051,2.0509,2.0502,2.0499,2.05,2.0496,2.05,2.0499,2.0498,2.048,2.0478,2.0503,2.0503,2.0503,2.0503,2.0503,2.0503,2.0537,2.0545,2.054,2.0545,2.0542,2.0544,2.0543,2.0541,2.0538,2.0539,2.0538,2.0533,2.0527,2.0524,2.0522,2.0519,2.0518,2.0523,2.0519,2.0502,2.0499,2.0497,2.0495,2.0523,2.0523,2.0536,2.0536,2.0536]}]]